Location: Bodest
(46.3000°N, 22.5667°E)
Time: 09:48:43
(UTC+00:00)

Cosmos 2263 Rocket - Pass Details

Date: 16 October 2021
Orbit: 825 x 847 km, 71.0° (Epoch: 07 December)

Event Time Altitude Azimuth Distance (km) Brightness Sun altitude
Rises 17:19:38 0° 334° (NNW) 3,376 5.8 -17.7°
Reaches altitude 10° 17:22:06 10° 337° (NNW) 2,437 5.0 -18.1°
Maximum altitude 17:27:40 72° 61° (ENE) 868 2.1 -19.1°
Enters shadow 17:30:57 25° 142° (SE) 1,599 3.3 -19.7°
